Wind_Speed
22 22 21 20 21 22 19 15 14 14 12 8 2 3 6 11 22 32 26 22 24 22 21 21 21 22 6 4 6 3 4 1 4 5 5 7 7 7 6 4 5 5 4 5 17
24 23 22 21 22 22 18 14 13 12 12 11 5 1 2 6 7 26 24 26 23 21 17 16 9 13 4 3 4 4 3 1 3 3 4 4 4 5 7 9 6 3 5 17 20
26 25 24 21 23 23 17 13 12 10 10 12 11 6 6 4 5 7 25 27 21 20 15 10 11 3 6 4 5 3 3 2 0 3 5 8 4 4 2 3 3 10 16 8 9
29 27 25 21 23 23 15 11 10 10 11 13 12 6 8 4 3 11 23 28 17 16 18 12 7 4 4 3 4 3 4 3 5 3 3 4 5 6 4 7 7 9 11 10 8
29 28 25 20 24 22 14 10 8 7 8 12 14 8 3 7 2 16 20 27 14 16 19 5 8 4 3 3 6 2 4 6 8 10 7 4 6 5 6 11 9 10 9 9 9
29 30 25 20 23 20 14 10 7 5 5 8 9 13 7 7 8 17 22 21 13 12 11 9 2 2 2 2 2 3 5 8 7 7 5 5 4 3 6 7 8 8 10 9 8
30 34 28 20 24 20 11 12 6 7 6 7 7 5 10 3 10 17 30 12 10 6 3 6 4 5 1 4 3 4 5 7 2 6 5 8 3 4 8 9 10 9 9 9 7
30 33 30 19 23 24 11 9 7 5 7 8 6 5 3 2 13 21 31 12 7 3 6 6 5 2 3 5 7 6 5 5 7 8 5 4 7 8 10 11 13 11 10 10 10
28 31 29 20 25 24 13 5 14 1 5 9 5 5 3 9 17 22 28 10 9 3 4 4 3 3 5 3 5 6 3 9 8 5 3 4 12 7 12 10 8 10 12 12 13
26 28 30 22 23 26 13 3 7 8 4 3 12 4 6 6 15 22 30 10 3 5 4 4 5 4 5 6 2 6 5 5 7 6 11 8 9 7 10 11 8 10 10 13 14
25 26 30 25 20 26 13 3 5 6 14 5 0 3 5 15 4 25 30 8 7 8 4 2 7 3 4 3 2 3 4 6 12 7 5 6 9 5 3 10 14 15 15 13 14
23 25 28 25 14 21 13 8 2 0 4 4 3 1 4 6 4 14 23 6 6 4 6 6 2 3 4 4 1 4 7 7 7 2 10 9 11 2 8 4 8 12 15 17 18
23 24 28 24 6 16 21 8 2 1 3 2 1 2 5 4 3 8 10 5 6 6 5 3 2 2 3 4 6 5 4 5 7 14 7 3 3 3 6 3 11 12 12 14 16
22 24 25 21 2 11 5 9 1 2 4 7 5 3 5 2 3 5 13 2 5 3 4 2 4 4 5 3 2 5 4 11 16 3 2 2 4 3 11 10 16 15 16 18 18
21 24 23 15 5 4 8 2 1 1 3 3 4 4 6 6 4 7 12 6 3 5 3 2 5 6 4 5 0 8 14 15 10 4 2 5 2 4 9 15 20 16 16 17 18
19 20 19 7 5 10 7 2 1 5 4 2 3 4 4 6 7 6 8 7 2 3 5 4 5 2 5 7 2 8 10 4 4 3 3 4 0 3 6 14 18 18 19 18 18
19 17 12 7 3 10 2 2 4 5 3 5 4 4 2 5 5 7 5 8 4 7 7 7 5 6 4 5 6 9 6 5 6 5 2 2 1 6 3 8 11 16 18 17 16
17 14 6 4 9 7 2 5 5 1 3 3 3 4 2 5 3 7 3 4 4 4 3 4 7 6 7 1 4 3 4 4 3 1 4 5 3 5 5 3 8 11 14 15 16
15 8 2 4 10 4 4 5 4 5 2 5 3 2 3 2 2 3 3 1 1 1 4 4 5 5 3 3 1 5 4 3 2 2 2 3 6 6 4 10 12 14 14 16 16
12 5 1 7 7 2 5 2 2 0 1 1 0 2 3 4 4 4 2 3 2 3 3 3 5 2 6 3 4 4 2 3 3 4 5 4 3 5 18 18 14 15 15 14 14
5 3 2 9 3 4 3 4 2 2 2 0 2 2 1 2 2 1 3 3 2 1 2 3 4 6 3 2 1 4 4 3 1 1 1 3 5 3 8 7 11 11 12 13 13
3 2 2 5 3 2 2 4 2 3 2 1 1 2 2 2 0 2 3 5 4 3 2 2 4 5 6 7 5 2 3 3 3 6 2 1 5 4 4 4 6 8 9 10 12
1 2 2 2 1 1 2 2 3 4 3 4 4 4 2 4 1 3 2 1 6 3 4 2 1 4 8 6 4 5 2 3 2 1 4 1 4 4 5 3 3 5 7 8 10
2 2 3 4 0 5 4 4 4 3 4 4 4 3 2 3 5 2 2 3 5 3 5 3 3 6 6 6 2 4 2 2 1 2 2 5 7 6 9 8 5 6 7 7 7
3 2 2 2 3 2 3 1 1 3 3 4 2 5 5 2 1 4 4 2 2 3 2 3 2 3 7 14 13 13 11 5 6 6 4 4 4 9 7 5 4 3 6 7 8
3 2 2 1 1 3 1 4 6 2 6 4 4 4 6 5 7 7 5 4 5 3 2 3 2 4 5 4 3 7 11 7 5 5 8 10 13 5 3 4 4 2 4 6 6
2 3 4 1 2 3 4 6 6 5 3 4 6 3 5 11 5 4 4 3 5 7 5 4 2 3 5 5 7 4 5 4 3 5 5 5 5 3 3 5 4 1 4 3 5
Wind_Direction
22 19 16 15 13 12 11 20 23 25 31 42 86 109 86 58 38 34 33 1 350 348 343 350 10 8 53 42 22 55 55 244 357 359 313 357 11 342 304 346 319 354 42 88 13
21 19 16 14 12 9 12 19 24 29 38 46 57 142 331 356 58 34 7 0 357 353 1 355 344 350 37 26 22 70 105 149 339 6 349 322 357 339 357 343 319 4 315 336 350
22 18 14 13 11 8 11 18 24 37 50 44 47 43 354 349 72 350 359 359 359 359 6 8 1 22 49 17 5 1 169 340 168 18 4 323 330 318 118 333 287 300 309 318 329
22 18 12 12 9 6 14 21 26 45 51 43 25 7 44 70 68 337 350 354 358 12 30 30 5 44 62 39 340 6 351 9 299 300 291 278 285 302 239 236 244 266 277 304 305
20 16 13 12 10 9 18 23 30 54 52 31 23 38 71 46 47 352 346 353 4 17 32 24 36 43 53 335 349 85 330 311 294 301 296 250 255 250 257 269 277 281 289 280 291
16 13 11 11 12 11 13 11 22 17 349 16 40 56 69 71 350 0 350 357 17 18 28 42 53 307 58 355 17 291 278 291 298 313 271 299 281 140 271 278 285 298 306 302 284
13 13 12 13 12 9 8 15 7 12 42 49 33 77 64 124 16 354 352 6 11 23 34 32 41 69 325 337 354 303 327 339 0 358 307 345 26 238 298 310 300 279 280 289 278
11 11 13 18 9 9 358 11 16 31 41 28 39 81 77 345 349 0 355 17 33 22 36 23 28 85 51 317 7 3 48 3 306 319 300 44 301 312 302 319 298 310 356 356 335
9 8 9 6 5 1 353 77 36 3 30 38 38 96 356 333 345 353 355 338 348 62 2 359 24 76 25 45 12 6 297 297 315 259 271 64 291 278 299 314 23 357 346 342 335
6 7 5 3 0 0 1 164 24 73 16 58 37 44 22 309 329 346 360 8 7 330 20 21 43 64 26 43 315 298 301 285 279 279 315 295 278 338 27 47 17 352 346 338 330
1 4 3 2 0 3 12 120 20 357 31 91 253 132 298 338 38 358 355 343 19 60 12 7 63 22 308 310 278 252 257 278 282 282 298 281 309 344 8 26 10 354 343 335 324
358 1 3 2 7 8 38 66 64 346 65 26 136 30 310 341 354 348 360 49 39 19 351 29 68 339 319 347 69 292 293 295 286 281 322 291 305 151 26 36 20 345 334 328 324
352 356 357 359 346 12 54 60 97 80 112 322 51 4 306 360 40 326 14 354 36 30 354 137 239 339 26 325 335 311 224 259 257 321 277 322 340 330 347 316 348 347 332 325 323
345 347 350 357 61 360 48 5 332 12 73 320 339 344 346 188 60 14 11 27 18 340 322 256 322 9 334 286 52 312 234 280 294 328 285 58 290 3 331 341 353 342 337 332 328
341 344 344 3 353 50 321 350 176 4 32 356 324 330 358 80 305 345 29 31 45 315 17 280 328 347 339 258 339 258 303 291 290 185 356 339 291 281 360 342 344 337 336 335 329
338 341 345 8 21 354 350 93 59 40 263 320 354 4 27 6 3 336 11 23 75 7 342 280 293 239 216 284 249 312 324 20 65 97 36 287 200 304 355 337 328 338 336 337 335
336 333 345 354 9 350 41 55 35 119 15 352 337 3 33 345 1 20 51 22 43 27 1 333 317 310 23 325 344 10 6 358 3 12 263 348 21 250 294 346 331 328 335 338 339
340 335 338 0 344 353 69 56 67 322 283 350 348 321 57 15 33 360 58 31 44 68 69 33 334 4 346 46 259 345 93 126 259 336 295 351 311 289 212 268 335 335 335 339 349
335 340 359 359 345 356 76 54 203 216 270 341 323 24 328 37 40 47 48 123 7 109 110 31 277 308 231 300 33 327 30 210 219 242 348 280 311 341 310 344 355 350 349 348 351
335 330 347 346 342 25 71 172 233 82 29 61 105 32 315 331 9 42 350 261 148 215 141 143 305 281 299 333 25 91 323 30 8 20 325 307 300 286 337 346 350 350 349 349 353
337 20 23 339 339 47 119 202 171 102 90 243 201 300 2 309 120 288 248 275 183 135 157 109 114 288 341 15 351 355 13 4 141 169 197 310 279 274 290 327 339 340 341 350 356
17 343 344 342 49 36 129 168 157 179 146 178 155 193 176 128 254 264 251 213 186 152 142 204 160 275 260 293 285 195 130 90 108 297 259 225 278 252 252 299 324 339 346 356 358
4 261 320 323 129 338 298 270 212 160 208 185 205 196 163 172 347 211 241 170 176 155 174 201 11 338 349 351 1 79 93 115 212 168 239 163 272 196 326 2 319 344 355 3 3
51 339 328 47 315 137 174 228 212 208 197 180 188 140 157 199 193 242 234 193 182 161 140 134 149 174 202 217 144 311 252 295 228 258 267 236 292 315 334 340 353 356 355 5 13
44 273 197 292 326 24 77 215 209 245 233 164 238 219 169 189 282 217 211 139 98 184 69 106 222 190 255 265 267 262 260 220 180 219 192 267 246 292 297 295 289 288 343 8 12
146 138 20 233 294 114 188 235 214 234 160 227 196 196 180 193 194 202 155 190 199 85 96 354 272 356 288 277 149 266 248 232 195 222 255 262 281 208 260 258 315 64 23 4 10
187 145 115 242 181 116 225 209 210 141 243 195 186 153 213 239 216 209 195 178 172 157 177 140 95 16 270 340 321 338 228 190 183 214 194 213 230 333 280 309 314 341 57 19 354
Height
845 842 839 835 832 830 827 824 823 821 820 819 818 818 819 818 818 814 810 820 814 809 804 799 793 791 790 793 794 797 815 815 811 809 807 804 804 799 796 796 792 789 787 789 787
846 842 839 836 833 830 827 825 824 822 821 820 819 818 818 818 818 818 823 819 814 809 804 801 799 796 798 798 801 809 821 811 809 809 812 807 807 804 802 801 792 791 787 787 786
847 844 841 837 834 831 828 826 824 823 821 820 820 820 819 817 819 824 823 819 815 811 807 804 802 801 805 804 809 810 817 812 809 810 811 810 806 805 804 804 798 795 788 789 787
849 845 842 838 836 832 829 827 825 824 824 822 820 819 818 816 830 826 823 820 816 812 808 806 804 807 816 815 814 815 812 813 811 810 810 809 805 806 803 802 795 794 791 787 786
851 847 843 839 837 833 830 828 826 825 824 822 821 818 818 825 831 828 824 820 816 813 810 811 813 815 819 818 816 814 816 812 810 809 807 805 805 805 802 796 794 791 788 787 785
852 848 844 840 837 833 831 829 827 826 824 822 822 820 820 834 831 828 823 818 816 814 814 813 816 815 817 817 818 817 815 814 807 807 805 804 803 801 798 793 792 789 786 783 782
853 849 844 841 837 834 831 829 827 826 826 824 823 823 826 834 830 828 822 817 816 816 815 815 815 815 820 821 817 815 817 813 806 807 803 801 804 799 797 794 792 789 785 781 779
855 850 845 842 838 834 831 829 828 827 826 825 824 825 832 831 830 826 821 817 817 817 817 817 817 818 819 819 821 822 825 834 812 810 803 803 811 801 796 794 792 789 790 787 783
857 852 847 843 839 835 831 830 828 827 827 825 825 825 835 831 829 825 823 819 817 817 817 818 817 821 823 832 846 840 847 836 823 807 809 809 813 800 795 792 798 799 795 790 786
858 854 849 845 840 835 830 830 831 827 827 826 827 833 835 838 832 829 824 820 818 818 820 820 825 835 839 845 862 846 844 834 832 812 808 810 807 802 804 802 805 804 801 795 791
858 855 851 846 842 837 830 830 834 835 834 842 843 842 840 836 833 830 825 822 821 826 833 825 841 845 836 832 832 836 850 844 823 811 807 806 806 804 805 805 804 802 799 797 792
859 855 851 846 843 840 833 839 847 849 848 842 841 840 840 838 839 834 831 832 833 839 836 841 846 831 828 828 831 833 842 841 822 808 810 804 805 803 804 807 809 807 802 796 789
859 856 851 847 844 841 843 846 847 846 850 845 842 842 841 841 842 842 838 837 841 843 844 842 829 826 829 831 832 830 837 832 826 811 806 810 814 814 806 805 805 806 803 798 791
860 856 851 846 846 846 848 849 850 848 868 851 845 843 841 840 844 842 843 842 844 846 844 837 829 830 832 831 832 843 817 815 817 827 838 813 817 814 810 804 806 807 802 796 788
859 855 852 846 849 848 851 847 849 849 876 850 848 844 843 846 848 845 846 842 850 850 846 834 835 835 836 839 827 828 816 815 816 821 820 819 812 819 808 806 810 808 804 798 789
858 855 852 849 850 850 848 849 850 866 870 847 850 850 849 851 851 850 852 848 851 852 852 844 839 831 840 828 822 820 814 820 829 832 860 820 822 822 825 823 816 809 804 798 789
857 855 851 851 851 849 848 849 867 875 852 855 858 855 855 859 858 861 872 879 889 883 894 862 841 835 831 833 829 830 838 876 851 866 831 821 813 821 827 824 822 814 807 799 792
854 853 851 850 850 849 849 860 874 858 869 862 860 859 856 865 866 867 868 885 879 886 904 894 863 846 839 837 842 848 853 886 882 884 823 818 846 819 826 825 822 818 811 802 795
852 851 850 849 848 849 852 882 878 883 867 866 862 858 864 865 871 873 895 887 880 890 895 919 868 852 844 839 835 837 864 845 862 867 853 843 835 827 824 822 820 817 812 805 798
852 850 849 848 847 848 863 868 866 865 866 867 867 864 864 874 877 893 907 880 877 882 886 886 892 857 849 838 837 839 842 864 872 885 873 851 853 833 823 823 822 819 815 809 803
852 852 850 849 849 853 873 872 865 866 867 870 876 868 870 886 905 911 902 879 875 876 883 883 900 870 860 853 855 852 868 861 864 861 863 846 847 833 840 835 830 825 820 813 808
853 859 850 848 860 872 874 862 861 865 867 869 869 868 870 880 894 895 891 880 873 876 888 884 899 908 865 852 855 846 856 864 888 883 862 853 841 833 840 839 834 829 823 819 813
857 855 849 850 867 872 868 864 863 866 867 868 867 866 867 871 885 879 871 871 873 876 890 887 909 913 884 867 855 871 857 865 871 875 889 867 837 828 829 836 839 834 827 823 818
860 866 856 854 862 860 865 862 861 859 859 862 864 863 866 868 871 875 869 870 872 875 873 878 907 903 898 885 886 891 876 862 862 869 880 859 838 825 828 831 836 837 829 826 824
860 866 863 873 865 865 872 870 862 862 863 861 865 865 869 886 883 873 869 870 873 871 882 889 907 910 882 870 868 863 868 876 882 861 861 852 853 832 831 836 840 844 835 827 826
859 862 865 872 864 863 868 873 862 862 867 863 868 859 869 872 864 872 872 873 872 881 898 897 903 896 891 859 862 859 847 848 862 851 852 845 837 829 828 831 833 843 840 830 829
857 857 857 862 868 873 864 856 855 859 859 856 858 864 867 859 859 859 861 864 869 878 892 898 889 909 903 870 894 865 856 858 845 848 836 839 826 828 826 826 827 835 835 834 830